User: anonymous   Login
Location: Caltech
(34.1382°N, 118.1253°W)
Time: 22:17:52
(UTC-07:00)
Language:

Cosmos 1484 Rocket - Orbit

View from above orbital plane
View from above orbital plane
View from above satellite
View from above satellite

Ground track
Ground track

The orbit data is extracted from the following two-line orbital elements,

1 14208U 83075B   17115.89627652 +.00000842 +00000-0 +54346-4 0  9998
2 14208 097.3424 128.6077 0038180 313.3129 046.4919 15.10347825839312
Epoch (UTC): 25 April 2017 21:30:38
Eccentricity: 0.0038180
inclination: 97.3424°
perigee height: 509 km
apogee height: 561 km
right ascension of ascending node: 128.6077°
argument of perigee: 313.3129°
revolutions per day: 15.10347825
mean anomaly at epoch: 46.4919°
orbit number at epoch: 83931

The dashed part of the orbit path shows where the satellite is in the earth's shadow,  

DLR